Location: Munkebjergskolens Observatorium
(55.3864°N, 10.3987°E)
Time: 05:23:41
(UTC+02:00)

QB50P2 - Pass Details

Date: 07 April 2023
Orbit: 581 x 596 km, 98.0° (Epoch: 31 May)

Event Time Altitude Azimuth Distance (km) Brightness Sun altitude
Rises 04:09:48 0° 10° (N) 2,836 ? -18.8°
Reaches altitude 10° 04:12:04 10° 3° (N) 1,928 ? -18.5°
Maximum altitude 04:15:56 38° 295° (WNW) 914 ? -18.1°
Enters shadow 04:16:52 33° 265° (W) 1,001 ? -18.0°
